Weather History for Charlevoix, MI

Change the Weather History Date:

Monday, August 19, 2013

  Actual Average Record
Temperature  
Mean Temperature 68 °F -  
Max Temperature 79 °F 68 °F 82 °F (2003)
Min Temperature 57 °F 59 °F 51 °F (2004)
Cooling Degree Days 3    
Growing Degree Days 18 (Base 50)    
Moisture  
Dew Point 59 °F    
Average Humidity 70    
Maximum Humidity 94    
Minimum Humidity 52    
Precipitation  
Precipitation 0.00 in - - ()
Sea Level Pressure  
Sea Level Pressure 30.06 in    
Wind  
Wind Speed 6 mph (SSW)    
Max Wind Speed 17 mph    
Max Gust Speed 22 mph    
Visibility 10 miles    
Events      
Averages and records for this station are not official NWS values.
T = Trace of Precipitation, MM = Missing Value Source: NWS Daily Summary

Daily Weather History Graph

Daily Weather History Graph

Search for Another Location

Airport:

Trip Planner

Search our weather history database for the weather conditions in past years. The results will help you decide how hot, cold, wet, or windy it might be!

Date:

Astronomy

Aug. 19, 2013 Rise Set
Actual Time 6:47 AM EDT 8:41 PM EDT
Civil Twilight 6:15 AM EDT 9:12 PM EDT
Nautical Twilight 5:36 AM EDT 9:51 PM EDT
Astronomical Twilight 4:54 AM EDT 10:33 PM EDT
Moon 7:31 PM EDT (8/19) 5:03 AM EDT (8/19)
Length of Visible Light 14h 57m
Length of Day
13h 53m
Waxing Gibbous, 97% of the Moon is Illuminated
Aug 19
Waxing Gibbous
Aug 20
Full
Aug 28
Last Quarter
Sep 5
New
Sep 12
First Quarter

Hourly Weather History & Observations

Time (EDT) Temp. Dew Point Humidity Pressure Visibility Wind Dir Wind Speed Gust Speed Precip Events Conditions
12:14 AM 64.4 °F 56.3 °F 75% 30.11 in 10.0 mi South 6.9 mph - N/A   Clear
12:35 AM 64.8 °F 56.1 °F 74% 30.11 in 10.0 mi SSW 5.8 mph - N/A   Clear
12:55 AM 64.4 °F 55.9 °F 74% 30.12 in 10.0 mi South 5.8 mph - N/A   Clear
1:14 AM 64.2 °F 55.4 °F 73% 30.12 in 10.0 mi SSW 4.6 mph - N/A   Clear
1:35 AM 63.7 °F 54.9 °F 73% 30.12 in 10.0 mi SSW 5.8 mph - N/A   Clear
1:55 AM 63.7 °F 54.7 °F 72% 30.12 in 10.0 mi SSW 5.8 mph - N/A   Clear
2:14 AM 63.7 °F 54.7 °F 72% 30.11 in 10.0 mi South 4.6 mph - N/A   Clear
2:35 AM 63.5 °F 55.0 °F 74% 30.10 in 10.0 mi South 3.5 mph - N/A   Clear
2:54 AM 61.0 °F 56.1 °F 84% 30.10 in 10.0 mi East 3.5 mph - N/A   Clear
3:15 AM 61.2 °F 55.6 °F 82% 30.10 in 10.0 mi South 3.5 mph - N/A   Clear
3:35 AM 62.4 °F 55.2 °F 77% 30.10 in 10.0 mi Calm Calm - N/A   Clear
3:54 AM 61.3 °F 55.4 °F 81% 30.10 in 10.0 mi Calm Calm - N/A   Clear
4:15 AM 59.5 °F 56.3 °F 89% 30.10 in 10.0 mi ESE 3.5 mph - N/A   Clear
4:34 AM 60.8 °F 55.8 °F 83% 30.09 in 10.0 mi Calm Calm - N/A   Clear
4:55 AM 59.4 °F 55.6 °F 87% 30.09 in 10.0 mi ESE 3.5 mph - N/A   Clear
5:15 AM 60.1 °F 55.8 °F 86% 30.09 in 10.0 mi SSE 3.5 mph - N/A   Clear
5:34 AM 59.0 °F 55.8 °F 89% 30.08 in 10.0 mi East 4.6 mph - N/A   Clear
5:55 AM 58.8 °F 55.8 °F 90% 30.08 in 10.0 mi Calm Calm - N/A   Clear
6:15 AM 58.3 °F 55.6 °F 91% 30.09 in 10.0 mi ESE 3.5 mph - N/A   Clear
6:34 AM 57.6 °F 55.8 °F 94% 30.09 in 10.0 mi ESE 3.5 mph - N/A   Clear
6:55 AM 57.7 °F 55.8 °F 93% 30.09 in 10.0 mi Calm Calm - N/A   Clear
7:15 AM 57.9 °F 55.8 °F 92% 30.10 in 10.0 mi Calm Calm - N/A   Clear
7:34 AM 58.3 °F 56.3 °F 93% 30.10 in 10.0 mi ESE 3.5 mph - N/A   Clear
7:55 AM 59.9 °F 56.7 °F 89% 30.10 in 10.0 mi Calm Calm - N/A   Clear
8:14 AM 61.3 °F 57.7 °F 88% 30.10 in 10.0 mi Calm Calm - N/A   Clear
8:35 AM 63.7 °F 59.0 °F 85% 30.10 in 10.0 mi ESE 3.5 mph - N/A   Clear
8:55 AM 65.5 °F 60.1 °F 83% 30.10 in 10.0 mi South 3.5 mph - N/A   Clear
9:14 AM 66.7 °F 60.8 °F 81% 30.09 in 10.0 mi SSE 3.5 mph - N/A   Clear
9:35 AM 68.2 °F 61.9 °F 80% 30.09 in 10.0 mi South 5.8 mph - N/A   Clear
9:55 AM 69.4 °F 62.2 °F 78% 30.08 in 10.0 mi South 5.8 mph - N/A   Clear
10:14 AM 70.3 °F 62.4 °F 76% 30.08 in 10.0 mi South 8.1 mph - N/A   Clear
10:35 AM 72.3 °F 63.0 °F 72% 30.09 in 10.0 mi WSW 8.1 mph - N/A   Clear
10:55 AM 72.9 °F 62.2 °F 69% 30.09 in 10.0 mi WSW 6.9 mph - N/A   Clear
11:14 AM 74.5 °F 62.2 °F 66% 30.10 in 10.0 mi WSW 11.5 mph - N/A   Clear
11:35 AM 74.5 °F 62.4 °F 66% 30.10 in 10.0 mi West 10.4 mph - N/A   Clear
11:55 AM 75.9 °F 61.7 °F 61% 30.09 in 10.0 mi WSW 11.5 mph - N/A   Clear
12:14 PM 76.3 °F 61.5 °F 60% 30.08 in 10.0 mi SW 8.1 mph - N/A   Clear
12:35 PM 76.5 °F 59.9 °F 56% 30.07 in 10.0 mi WSW 10.4 mph 16.1 mph N/A   Clear
12:55 PM 76.8 °F 60.8 °F 58% 30.06 in 10.0 mi South 10.4 mph - N/A   Clear
1:15 PM 77.4 °F 60.8 °F 57% 30.06 in 10.0 mi SW 9.2 mph - N/A   Clear
1:35 PM 77.9 °F 59.9 °F 54% 30.06 in 10.0 mi SW 10.4 mph 16.1 mph N/A   Clear
1:54 PM 78.3 °F 59.2 °F 52% 30.05 in 10.0 mi SW 12.7 mph 18.4 mph N/A   Clear
2:15 PM 79.2 °F 60.3 °F 52% 30.05 in 10.0 mi West 16.1 mph - N/A   Clear
2:35 PM 78.3 °F 60.3 °F 54% 30.04 in 10.0 mi WSW 12.7 mph - N/A   Clear
2:54 PM 78.8 °F 60.3 °F 53% 30.04 in 10.0 mi West 12.7 mph 18.4 mph N/A   Clear
3:15 PM 78.8 °F 60.3 °F 53% 30.03 in 10.0 mi WSW 10.4 mph 18.4 mph N/A   Clear
3:35 PM 78.4 °F 60.6 °F 54% 30.03 in 10.0 mi WSW 11.5 mph 17.3 mph N/A   Clear
3:54 PM 78.4 °F 60.4 °F 54% 30.04 in 10.0 mi West 17.3 mph 21.9 mph N/A   Clear
4:15 PM 78.3 °F 61.2 °F 56% 30.04 in 10.0 mi West 15.0 mph 20.7 mph N/A   Clear
4:34 PM 78.3 °F 60.6 °F 54% 30.03 in 10.0 mi WSW 12.7 mph 21.9 mph N/A   Clear
4:55 PM 78.3 °F 61.2 °F 56% 30.03 in 10.0 mi WSW 12.7 mph 20.7 mph N/A   Clear
5:15 PM 77.0 °F 60.6 °F 57% 30.03 in 10.0 mi WSW 13.8 mph 17.3 mph N/A   Clear
5:34 PM 77.0 °F 61.0 °F 58% 30.03 in 10.0 mi WSW 10.4 mph 18.4 mph N/A   Clear
5:55 PM 77.2 °F 59.5 °F 54% 30.03 in 10.0 mi WSW 15.0 mph 19.6 mph N/A   Clear
6:15 PM 77.2 °F 59.0 °F 53% 30.02 in 10.0 mi SW 11.5 mph 18.4 mph N/A   Clear
6:34 PM 76.5 °F 59.9 °F 56% 30.02 in 10.0 mi SW 6.9 mph - N/A   Clear
6:55 PM 76.1 °F 59.4 °F 56% 30.02 in 10.0 mi SW 8.1 mph - N/A   Clear
7:15 PM 75.6 °F 59.2 °F 57% 30.02 in 10.0 mi SW 5.8 mph - N/A   Clear
7:34 PM 74.7 °F 60.1 °F 60% 30.02 in 10.0 mi SSW 6.9 mph - N/A   Clear
7:55 PM 73.6 °F 60.1 °F 63% 30.02 in 10.0 mi SW 5.8 mph - N/A   Clear
8:15 PM 72.9 °F 60.1 °F 64% 30.02 in 10.0 mi SW 6.9 mph - N/A   Clear
8:34 PM 71.8 °F 59.9 °F 66% 30.02 in 10.0 mi SW 4.6 mph - N/A   Clear
8:55 PM 70.7 °F 59.9 °F 69% 30.02 in 10.0 mi SSW 4.6 mph - N/A   Clear
9:14 PM 70.3 °F 59.7 °F 69% 30.02 in 10.0 mi SSW 6.9 mph - N/A   Clear
9:35 PM 70.9 °F 59.2 °F 66% 30.02 in 10.0 mi SSW 6.9 mph - N/A   Clear
9:55 PM 71.6 °F 58.8 °F 64% 30.02 in 10.0 mi SSW 8.1 mph - N/A   Clear
10:14 PM 70.7 °F 59.0 °F 66% 30.02 in 10.0 mi SW 6.9 mph - N/A   Clear
10:35 PM 70.3 °F 59.5 °F 69% 30.02 in 10.0 mi SSW 8.1 mph - N/A   Clear
10:54 PM 70.0 °F 59.5 °F 69% 30.02 in 10.0 mi SSW 8.1 mph - N/A   Clear
11:15 PM 70.2 °F 59.9 °F 70% 30.02 in 10.0 mi SSW 8.1 mph - N/A   Clear
11:35 PM 70.2 °F 60.3 °F 71% 30.02 in 10.0 mi SSW 9.2 mph - N/A   Clear
11:54 PM 70.0 °F 60.1 °F 71% 30.02 in 10.0 mi SSW 9.2 mph 16.1 mph N/A   Clear